Weather in Kletino

Russia / Ryazan Oblast     55°00′08″N   41°12′12″E
temp.,
°C
wind,
m/s
gust,
m/s
humid.,
%
clouds,
%
prec.,
mm/h
press.,
hPa
HPBL,
m
2 march, tue
tue200:000wsw51293100 0.0 1014700
03:00+1wsw51293100 0.0 1011635
06:00+1w51294100 0.0 1008799
09:00+1wnw51298100 0.1 1007811
12:00+1wnw51191100 0.3 1006937
15:00+1nw498696 0.4 1006929
18:00−1wnw3118889 0.1 1006371
21:00−2nw4119191 0.2 1007524
3 march, wed
wed300:00−2nw4109195 0.2 1008775
03:00−5nw4138996 0.3 1009704
06:00−7nw5129157 0.0 1010648
09:00−6nw6128678 0.1 1013766
12:00−3nw6107783 0.0 1013955
15:00−1wnw598358 0.1 10131029
18:00−2wnw41190100 0.1 1012595
21:00−4w3995100 0.2 1013356
4 march, thu
thu400:00−2w4109289 0.1 1011595
03:00−3wsw4119394 0.2 1010587
06:00−3sw51391100 0.0 1007568
09:000wsw71487100 0.4 1004922
12:00+1wsw71486100 0.0 10011126
15:00+1wsw71483100 0.0 9991236
18:00+1wsw61393100 0.1 9981083
21:000w51295100 0.2 999746
5 march, fri
fri500:00−3nw2390100 0.3 100058
03:00−5nw2792100 0.3 1002246
06:00−8nw2494100 0.0 1004135
09:00−7nnw248956 0.0 1006229
12:00−3nw127533 0.0 1007591
15:00−3wnw117467 0.0 1008685
18:00−5ese1186100 0.0 100821
21:00−6ene1290100 0.0 100821
6 march, sat
sat600:00−6nne2395100 0.0 1007118
03:00−8n2296100 0.1 100886
06:00−11nnw239567 0.0 100884
09:00−9nw368846 0.0 1009278
12:00−6nw36801 0.0 1009694
15:00−5wnw467649 0.1 10091079
18:00−8wnw2588100 0.3 1010126
21:00−10w239283 0.3 101139